Wetbulb
72.43 75.22 77.62 78.27 78.09 78.16 78.39 78.68 78.51 78.67 78.43 78.48 78.68 78.97 78.96 79.17 79.18 79.09 79.15 79.22 79.10 79.08 78.93 78.28 78.62 78.42 78.01 77.77 77.28 77.22 77.04 76.85 77.08 76.45 75.98 75.22 74.98 74.89 75.17 74.40 74.92 73.42 75.18
74.07 75.32 78.34 78.75 78.24 78.15 78.09 78.41 78.26 78.52 78.63 79.02 78.96 78.97 79.03 79.41 79.67 79.28 79.19 78.89 78.82 78.78 78.56 78.32 78.24 78.21 77.74 77.31 77.17 76.92 76.87 76.64 76.51 76.60 76.09 75.34 75.39 75.61 75.10 75.29 75.85 74.13 74.58
74.24 75.01 76.68 78.80 78.80 78.34 78.30 78.31 78.58 78.36 78.98 79.06 78.84 78.75 78.52 78.67 79.19 78.99 78.90 78.94 78.91 78.46 78.01 77.76 77.59 77.57 77.42 77.15 77.19 77.08 75.51 75.53 75.81 75.93 75.24 74.84 74.54 75.89 75.46 75.35 75.52 75.26 74.44
74.64 75.24 75.77 78.65 78.90 78.80 78.45 78.36 78.55 78.70 78.90 78.88 78.99 78.62 78.66 78.78 78.92 78.89 78.79 78.35 78.21 78.19 77.60 77.60 77.29 76.91 76.54 76.18 75.79 75.99 75.65 75.29 74.68 74.38 74.13 74.10 74.11 75.75 74.96 75.97 75.07 74.53 74.64
75.93 76.54 77.30 78.99 78.88 78.66 78.79 79.20 79.15 79.07 79.09 79.09 78.97 78.74 78.65 78.42 77.52 77.83 77.70 77.72 77.73 77.78 77.54 77.24 76.77 76.49 75.96 75.64 75.47 75.59 75.70 75.96 75.82 74.57 74.40 74.13 74.02 74.99 74.76 74.24 73.98 73.17 74.19
76.19 76.44 78.16 79.03 78.92 79.10 78.93 79.03 79.29 79.13 79.05 79.21 78.84 78.77 78.35 78.11 77.90 77.66 77.74 77.71 77.40 77.29 77.21 77.02 76.52 76.07 75.68 75.45 75.33 75.45 75.76 75.52 73.88 72.69 74.00 75.02 74.43 75.77 75.25 74.60 75.08 73.58 74.26
75.59 76.39 77.51 79.72 79.86 79.44 79.34 79.43 79.35 79.18 78.97 78.74 78.46 77.91 78.50 78.37 77.74 77.74 77.58 77.41 77.05 76.90 76.54 76.25 75.94 75.49 75.43 75.71 75.90 75.74 75.85 75.73 73.11 73.18 73.89 73.53 74.70 76.81 75.91 74.57 75.04 74.28 74.48
75.43 76.19 76.75 78.98 79.23 79.07 79.13 78.80 79.34 78.92 78.68 78.57 78.51 78.55 78.45 77.82 77.55 77.24 76.93 76.82 76.56 75.91 75.56 75.62 75.44 75.17 75.23 75.57 75.79 76.68 76.71 75.93 74.36 74.29 73.99 74.15 75.35 76.61 75.78 74.16 74.37 74.48 74.41
76.47 76.54 77.15 76.89 78.07 78.90 79.37 78.85 78.94 79.06 78.61 78.20 78.33 78.15 77.79 77.63 77.38 77.27 76.93 76.54 75.63 75.50 75.49 75.82 76.15 75.85 76.27 76.54 76.76 77.41 76.92 76.35 74.87 75.12 74.45 73.91 76.62 76.77 75.56 75.13 73.47 72.92 73.38
76.24 76.74 77.37 77.45 77.36 77.74 77.57 79.32 78.83 79.04 78.70 78.27 77.62 77.24 77.35 77.66 77.69 77.21 76.76 77.31 76.36 75.90 75.98 76.56 76.80 76.96 77.28 77.57 77.43 77.54 77.31 76.38 74.87 74.23 74.50 73.35 76.48 76.70 75.77 75.26 74.35 73.76 72.51
74.95 75.94 75.88 76.77 77.85 78.59 77.62 77.26 78.94 78.44 78.60 77.90 77.41 77.55 77.77 76.06 75.45 70.80 69.59 73.98 77.40 76.79 76.65 77.04 77.41 77.83 77.74 77.73 77.93 77.98 76.88 74.55 74.81 75.12 73.82 74.74 76.91 76.84 75.90 75.34 74.71 74.08 74.64
73.88 74.92 76.03 76.38 77.11 77.68 76.14 77.47 78.02 77.53 76.83 76.96 76.99 77.76 76.93 77.05 76.95 74.49 70.78 74.35 77.32 77.24 77.91 77.60 77.48 78.05 76.29 74.61 75.70 77.46 75.43 74.18 75.13 74.48 73.79 74.07 76.36 76.97 75.77 76.15 75.89 74.86 74.09
74.54 74.79 75.31 77.58 78.51 77.67 76.14 77.19 77.52 77.21 76.69 76.91 78.69 79.09 79.22 79.00 73.32 77.22 73.84 74.69 77.60 78.32 76.12 77.48 76.73 76.08 74.93 74.55 74.06 73.64 74.20 74.24 73.17 74.12 74.69 75.35 75.75 76.67 76.47 76.09 75.97 75.53 75.13
73.75 74.90 75.63 75.71 77.05 77.66 75.54 77.01 77.02 76.73 76.97 74.02 76.99 79.06 79.25 77.24 78.63 78.10 76.90 77.54 77.64 75.54 77.38 76.90 75.49 76.70 75.76 76.12 74.24 74.02 73.31 72.76 72.88 74.14 74.76 76.06 76.58 77.05 76.11 76.12 76.27 75.66 74.92
73.35 74.59 76.43 76.96 77.67 79.70 76.65 79.23 75.29 75.34 75.14 76.76 77.29 77.49 77.60 77.99 77.77 77.48 77.84 77.07 76.88 76.94 75.32 76.27 76.82 75.79 75.31 75.40 75.33 74.87 73.55 73.48 73.52 73.67 74.57 76.93 76.73 77.04 76.77 76.91 76.27 76.37 75.84
73.87 74.24 76.04 76.93 78.89 79.43 79.51 79.90 80.16 76.34 75.10 78.71 77.57 75.71 77.95 76.34 77.36 77.07 75.96 76.39 77.34 75.40 77.44 76.22 76.54 75.61 74.99 75.10 74.35 74.61 74.11 74.49 74.48 74.71 74.55 75.13 76.41 76.59 76.92 76.93 77.03 76.89 76.68
73.38 74.44 76.10 76.38 78.17 78.63 78.87 79.93 80.02 78.15 75.97 77.58 76.14 78.11 78.29 77.84 78.52 77.89 76.65 75.55 75.58 77.30 77.69 76.84 76.01 75.20 74.70 74.27 74.14 73.01 74.56 74.30 73.65 74.44 74.36 74.60 74.42 76.50 76.91 76.68 77.04 77.85 77.69
73.86 74.89 74.88 74.74 76.96 78.11 78.66 78.78 78.33 77.51 77.00 78.33 78.39 76.38 77.41 78.33 78.78 77.11 76.03 75.01 75.95 76.57 75.25 75.86 75.33 73.77 73.96 73.40 73.71 74.03 73.95 74.10 73.56 73.86 74.38 73.95 74.47 74.64 76.31 76.81 76.92 77.02 77.84
75.85 76.41 75.36 76.16 77.00 78.08 78.43 79.02 78.27 79.15 78.04 79.08 77.02 78.09 76.96 79.29 78.50 77.36 75.99 76.22 76.80 74.91 74.39 73.97 73.66 73.88 72.31 71.72 72.33 73.03 73.49 73.63 72.43 72.72 73.25 73.62 73.64 74.05 74.56 75.72 75.85 76.01 76.99
75.56 75.23 76.24 76.36 79.38 77.76 78.55 79.63 79.27 78.81 77.37 77.99 78.30 77.29 78.09 78.73 78.06 77.01 76.39 75.63 75.39 74.72 74.03 73.56 72.81 73.04 72.66 72.60 72.06 71.32 71.89 72.75 72.61 71.45 71.26 72.96 73.30 73.45 73.68 74.49 74.66 74.47 76.71
75.49 77.38 75.77 76.52 80.70 79.90 78.05 76.46 77.40 75.82 77.84 77.22 78.27 78.47 78.43 78.65 77.42 77.25 76.51 76.09 75.59 73.88 74.33 74.44 73.82 72.61 71.22 73.12 70.56 69.57 71.03 71.65 72.07 72.78 72.70 71.57 71.79 72.88 73.14 73.61 74.80 74.01 74.68
76.02 77.10 78.23 78.84 79.43 79.48 79.60 79.14 78.41 78.27 77.69 77.30 76.78 77.93 77.80 76.29 75.87 77.19 77.17 74.97 73.96 73.03 73.12 73.47 73.59 71.25 71.04 71.33 68.58 67.28 65.40 67.50 70.39 71.52 72.21 71.71 71.76 72.55 72.19 72.83 73.59 74.40 74.44
74.92 76.35 77.65 78.72 78.79 79.63 79.85 80.08 78.66 77.88 77.88 75.64 76.35 73.09 74.16 74.12 74.84 75.97 75.77 75.10 74.59 73.96 71.01 71.78 72.20 70.28 68.64 71.07 70.39 67.63 64.35 62.71 66.11 69.70 70.90 71.55 71.31 71.26 72.11 72.43 73.06 73.26 74.45
74.77 76.61 77.92 79.04 79.68 79.51 79.63 78.53 76.87 74.09 70.78 74.64 74.71 73.55 73.07 74.58 74.30 74.13 74.45 74.44 74.35 73.04 72.01 72.11 71.27 70.85 70.92 68.24 69.92 70.84 69.10 67.67 64.57 63.33 68.55 70.13 71.51 71.03 72.05 72.04 72.20 73.16 73.30
74.75 75.37 77.41 79.22 79.11 78.10 77.47 76.35 74.29 73.91 71.25 71.99 72.15 72.99 74.22 73.40 74.17 73.23 74.74 73.97 72.71 72.14 71.69 71.50 71.29 70.75 70.13 69.29 68.51 68.71 68.71 67.52 68.15 65.89 63.42 65.75 68.74 71.73 71.05 70.99 69.92 70.95 73.11
74.04 75.01 76.96 77.40 77.12 77.00 75.85 75.13 74.08 73.25 72.60 71.07 71.67 71.02 70.50 71.64 71.83 73.53 72.14 72.79 72.89 71.84 71.32 70.43 71.45 70.70 70.15 69.69 69.35 68.60 67.27 65.89 65.45 64.56 63.88 65.00 65.88 68.02 70.86 70.20 70.17 70.43 71.04
MSLP
1013.10 1013.47 1014.00 1013.89 1014.17 1014.31 1014.51 1014.87 1015.05 1015.15 1015.63 1015.73 1016.05 1016.21 1016.32 1016.34 1016.71 1016.71 1016.98 1017.14 1017.27 1017.52 1017.57 1017.61 1017.87 1017.85 1017.90 1017.85 1017.87 1017.79 1017.81 1018.04 1018.23 1018.39 1018.39 1018.44 1018.48 1018.68 1018.76 1018.87 1018.70 1018.88 1019.21
1012.70 1013.51 1014.05 1014.15 1014.49 1014.68 1014.89 1015.14 1015.45 1015.49 1015.84 1015.86 1016.44 1016.44 1016.55 1016.79 1017.04 1017.03 1017.16 1017.53 1017.50 1017.59 1017.86 1018.00 1018.10 1018.07 1018.11 1018.12 1018.14 1018.21 1018.09 1018.30 1018.49 1018.66 1018.53 1018.66 1018.67 1018.76 1018.72 1018.62 1018.76 1019.15 1019.42
1012.80 1013.55 1014.00 1014.37 1014.55 1014.92 1015.25 1015.45 1015.61 1016.01 1016.12 1016.47 1016.70 1016.65 1016.83 1017.14 1017.31 1017.46 1017.57 1017.65 1017.78 1017.95 1018.13 1018.22 1018.15 1018.18 1018.18 1018.23 1018.26 1018.35 1018.55 1018.63 1018.73 1018.60 1018.76 1018.81 1018.71 1018.83 1018.84 1018.84 1019.11 1019.37 1019.58
1012.43 1013.27 1014.15 1014.69 1014.90 1015.15 1015.50 1015.75 1015.93 1016.21 1016.48 1016.75 1016.93 1016.91 1017.22 1017.49 1017.70 1017.83 1017.92 1018.04 1018.23 1018.34 1018.54 1018.53 1018.45 1018.29 1018.16 1018.27 1018.43 1018.57 1018.84 1018.93 1018.89 1018.92 1019.07 1018.91 1018.40 1018.83 1018.94 1018.95 1019.30 1019.56 1019.76
1012.86 1013.70 1014.49 1014.88 1015.14 1015.54 1015.70 1015.94 1016.18 1016.51 1016.75 1017.00 1017.17 1017.30 1017.62 1017.77 1017.95 1018.14 1018.27 1018.40 1018.56 1018.64 1018.69 1018.63 1018.58 1018.45 1018.29 1018.33 1018.51 1018.90 1018.96 1018.72 1018.30 1018.62 1018.64 1018.93 1018.54 1018.84 1018.98 1019.08 1019.44 1019.71 1019.73
1013.22 1014.03 1014.81 1015.08 1015.32 1015.66 1015.98 1016.16 1016.49 1016.78 1017.01 1017.22 1017.38 1017.59 1017.87 1017.98 1018.15 1018.33 1018.46 1018.55 1018.68 1018.73 1018.77 1018.71 1018.59 1018.45 1018.33 1018.41 1018.62 1019.01 1018.90 1018.20 1017.28 1019.06 1018.51 1018.63 1019.11 1019.09 1018.91 1018.99 1019.40 1019.81 1020.04
1013.59 1014.29 1014.93 1015.35 1015.57 1015.84 1016.19 1016.42 1016.72 1016.89 1017.17 1017.42 1017.62 1017.81 1017.95 1018.13 1018.40 1018.58 1018.72 1018.78 1018.83 1018.77 1018.81 1018.68 1018.52 1018.38 1018.30 1018.42 1018.62 1018.93 1018.64 1018.03 1018.64 1018.33 1018.64 1018.41 1019.46 1019.75 1019.05 1018.99 1019.46 1019.84 1020.12
1013.31 1014.31 1015.02 1015.65 1015.91 1016.22 1016.51 1016.68 1016.92 1017.18 1017.41 1017.66 1017.83 1017.95 1018.13 1018.37 1018.56 1018.60 1018.62 1018.63 1018.65 1018.82 1018.84 1018.74 1018.53 1018.38 1018.26 1018.37 1018.43 1018.80 1018.46 1018.00 1018.07 1018.17 1018.41 1018.57 1019.40 1019.86 1019.26 1019.08 1019.53 1019.92 1020.22
1013.20 1014.20 1015.03 1015.50 1015.87 1016.27 1016.54 1016.82 1017.04 1017.25 1017.53 1017.74 1017.93 1018.15 1018.32 1018.44 1018.36 1018.50 1018.65 1018.55 1018.52 1018.54 1018.77 1018.72 1018.53 1018.35 1018.21 1018.21 1018.17 1018.38 1018.55 1018.00 1017.65 1017.44 1018.89 1018.43 1018.87 1019.44 1018.97 1019.19 1019.65 1020.07 1020.33
1013.39 1014.05 1014.77 1015.45 1015.81 1016.21 1016.60 1016.85 1017.14 1017.39 1017.61 1017.82 1018.02 1018.22 1018.40 1018.21 1018.24 1019.28 1019.42 1018.78 1018.24 1018.30 1018.45 1018.50 1018.46 1018.20 1018.03 1017.95 1017.97 1017.77 1017.94 1018.11 1017.78 1017.36 1018.61 1018.73 1018.58 1018.50 1018.60 1019.09 1019.72 1020.04 1020.39
1013.64 1014.18 1014.65 1015.09 1015.52 1015.93 1016.34 1016.87 1017.24 1017.51 1017.71 1017.84 1018.00 1018.15 1018.20 1017.77 1017.84 1018.78 1018.87 1018.94 1017.99 1018.06 1018.15 1018.29 1018.23 1018.03 1017.97 1017.75 1017.61 1017.52 1017.62 1017.39 1017.06 1017.66 1018.16 1018.44 1018.98 1018.44 1018.25 1019.01 1019.74 1020.02 1020.31
1013.41 1014.18 1014.44 1014.84 1015.22 1015.64 1015.66 1016.70 1016.92 1017.19 1017.41 1017.59 1017.56 1017.80 1017.76 1017.34 1017.76 1018.67 1018.89 1018.59 1017.96 1017.91 1018.05 1018.12 1018.06 1017.73 1017.72 1017.45 1017.13 1017.06 1017.26 1016.97 1016.83 1017.56 1017.64 1017.96 1018.75 1018.72 1018.16 1018.93 1019.63 1019.98 1020.23
1012.82 1013.16 1013.93 1014.68 1014.96 1015.41 1016.18 1016.12 1016.22 1016.45 1016.55 1016.92 1017.05 1017.21 1017.54 1017.55 1017.86 1017.45 1017.77 1017.62 1017.57 1017.49 1017.61 1017.45 1017.46 1017.52 1017.48 1017.20 1016.85 1016.69 1016.71 1016.47 1016.04 1017.00 1017.39 1017.85 1018.80 1018.32 1018.12 1018.82 1019.40 1019.80 1019.99
1012.59 1012.93 1014.02 1014.62 1015.26 1015.45 1015.73 1015.58 1015.79 1015.87 1016.04 1016.52 1016.65 1016.92 1017.10 1017.27 1017.46 1017.33 1017.35 1017.36 1017.31 1017.50 1017.32 1017.40 1017.34 1017.31 1017.07 1016.80 1016.80 1016.57 1016.55 1016.44 1016.05 1016.41 1017.42 1017.71 1017.74 1017.73 1018.03 1018.65 1019.12 1019.41 1019.67
1012.80 1013.01 1013.74 1014.61 1014.98 1015.26 1015.56 1015.62 1015.80 1015.82 1015.89 1015.94 1016.39 1016.63 1016.67 1016.99 1017.30 1017.39 1017.37 1017.45 1017.44 1017.35 1017.39 1017.22 1017.08 1017.17 1017.13 1016.92 1016.63 1016.68 1016.56 1016.55 1016.32 1016.31 1016.74 1017.16 1017.08 1017.38 1017.85 1018.38 1018.79 1018.98 1019.24
1012.95 1013.19 1013.75 1014.54 1014.98 1015.35 1015.81 1015.87 1016.00 1015.74 1016.00 1015.72 1016.10 1016.30 1016.43 1016.69 1017.12 1017.10 1017.42 1017.34 1017.28 1017.34 1017.08 1017.31 1017.18 1017.28 1017.20 1016.91 1016.72 1016.45 1016.28 1016.41 1016.44 1016.30 1016.25 1016.99 1017.33 1017.45 1017.76 1017.96 1018.35 1018.53 1018.74
1012.91 1013.11 1013.67 1014.22 1014.76 1015.50 1015.90 1015.85 1015.83 1015.83 1015.58 1015.60 1015.79 1015.91 1016.13 1016.49 1016.48 1016.87 1017.14 1017.36 1017.27 1017.13 1016.97 1017.08 1017.09 1017.12 1017.12 1016.70 1016.71 1016.28 1016.01 1016.20 1016.27 1016.21 1016.18 1016.57 1016.77 1017.13 1017.23 1017.48 1017.65 1018.00 1018.21
1012.66 1013.34 1013.92 1014.25 1014.71 1015.18 1015.57 1015.77 1015.96 1015.95 1015.73 1015.53 1015.73 1015.89 1015.78 1015.78 1016.00 1016.61 1016.99 1017.10 1017.06 1017.00 1017.20 1017.20 1017.22 1017.18 1017.02 1016.78 1016.53 1016.26 1016.14 1015.82 1015.79 1015.66 1015.80 1015.91 1016.03 1016.40 1016.68 1016.73 1016.99 1017.14 1017.51
1012.78 1013.35 1013.80 1014.16 1014.55 1015.09 1015.44 1015.43 1015.71 1015.52 1015.61 1015.69 1015.76 1015.66 1015.66 1015.78 1016.16 1016.53 1016.87 1016.80 1016.93 1017.06 1017.03 1017.12 1017.08 1017.15 1017.21 1017.15 1016.77 1016.17 1015.91 1015.60 1015.40 1014.87 1014.97 1015.22 1015.34 1015.50 1015.90 1016.07 1016.33 1016.58 1016.96
1012.54 1013.17 1013.63 1013.97 1014.12 1014.83 1015.22 1015.62 1015.60 1015.69 1015.66 1015.52 1015.49 1015.69 1015.74 1015.96 1016.13 1016.54 1016.68 1016.85 1016.95 1017.13 1017.08 1016.92 1017.09 1017.12 1017.13 1017.03 1016.76 1016.39 1016.08 1015.72 1015.22 1015.00 1014.80 1014.30 1014.51 1014.67 1014.73 1015.00 1015.54 1016.00 1016.28
1011.75 1012.73 1013.50 1014.02 1014.23 1014.73 1015.38 1015.70 1015.72 1015.81 1015.71 1015.52 1015.33 1015.38 1015.62 1015.74 1015.95 1016.27 1016.42 1016.51 1016.45 1016.76 1016.70 1016.76 1016.74 1016.89 1016.92 1016.79 1016.82 1016.42 1015.88 1015.50 1015.09 1014.63 1014.40 1014.20 1014.00 1013.74 1013.96 1014.18 1014.57 1014.95 1015.40
1011.39 1012.30 1012.99 1013.68 1014.36 1014.84 1015.25 1015.42 1015.48 1015.55 1015.28 1015.20 1015.09 1014.95 1015.20 1015.51 1015.70 1015.81 1015.95 1016.23 1016.27 1016.39 1016.37 1016.44 1016.37 1016.69 1016.90 1016.88 1017.07 1016.90 1016.17 1015.28 1014.61 1014.19 1013.88 1013.69 1013.46 1013.11 1013.22 1013.47 1013.73 1014.16 1014.28
1011.08 1011.93 1012.70 1013.38 1014.14 1014.55 1014.86 1015.08 1015.36 1015.19 1015.10 1014.90 1014.99 1015.22 1015.63 1015.69 1015.72 1015.78 1015.86 1016.06 1016.27 1016.39 1016.41 1016.41 1016.51 1016.81 1016.98 1016.80 1016.76 1016.95 1016.41 1015.58 1014.87 1014.04 1013.58 1013.46 1013.23 1013.05 1012.80 1012.73 1013.03 1013.30 1013.49
1010.74 1011.57 1012.37 1013.00 1013.57 1014.10 1014.35 1014.55 1014.84 1014.99 1015.08 1015.12 1015.08 1015.43 1015.54 1015.48 1015.77 1015.93 1015.98 1016.01 1016.17 1016.47 1016.48 1016.49 1016.52 1016.79 1016.87 1016.86 1016.67 1016.28 1016.31 1016.10 1015.88 1014.85 1013.88 1013.42 1013.14 1013.19 1012.86 1012.71 1012.66 1012.62 1012.88
1010.23 1011.19 1012.06 1012.81 1013.41 1013.90 1014.34 1014.62 1014.81 1015.06 1015.22 1015.16 1015.22 1015.50 1015.82 1015.73 1015.75 1015.63 1015.72 1016.03 1016.39 1016.51 1016.48 1016.46 1016.50 1016.64 1016.63 1016.70 1016.76 1016.55 1016.12 1015.79 1015.69 1015.69 1014.76 1013.72 1013.22 1013.07 1013.35 1012.79 1013.41 1013.87 1012.24
1009.76 1010.91 1011.82 1012.65 1013.38 1013.87 1014.25 1014.55 1014.84 1015.08 1015.30 1015.55 1015.81 1015.98 1015.87 1015.65 1015.53 1015.58 1015.88 1016.25 1016.44 1016.57 1016.43 1016.45 1016.35 1016.37 1016.32 1016.34 1016.42 1016.53 1016.43 1016.30 1015.96 1015.88 1015.40 1014.52 1013.93 1013.31 1013.27 1013.14 1013.40 1013.22 1013.03
Wind_Speed
12 12 10 14 15 16 17 18 18 19 18 18 18 17 16 16 15 15 14 14 13 11 11 10 10 10 10 10 9 9 10 9 9 10 10 10 10 8 7 6 6 12 10
16 13 10 13 16 16 16 17 18 18 17 18 17 16 16 15 14 13 13 12 12 12 11 11 10 10 9 8 7 6 6 5 7 7 8 8 9 8 6 8 12 11 10
16 14 13 13 14 16 15 16 17 17 16 15 15 15 15 14 12 12 11 11 11 11 11 9 8 7 6 5 4 4 2 1 5 6 6 5 7 7 10 12 12 11 10
14 15 13 13 14 14 14 14 16 16 16 14 13 14 14 13 12 11 11 11 10 10 9 8 6 6 4 3 2 4 4 4 1 2 2 5 7 9 10 13 12 11 11
15 14 11 13 14 14 13 13 15 15 15 13 13 13 12 13 13 12 11 10 9 8 8 7 5 4 3 2 3 4 4 7 8 9 5 5 4 10 11 11 10 9 9
13 15 12 13 13 13 13 13 14 13 13 13 13 11 12 12 12 10 10 9 8 7 6 6 4 3 3 3 3 4 4 4 9 10 4 6 5 13 13 9 11 12 11
15 14 13 13 14 14 13 13 14 13 13 12 11 10 10 10 10 9 8 7 6 6 5 4 3 2 3 3 3 4 4 6 7 10 1 4 6 10 12 13 11 11 10
16 16 14 13 13 13 13 13 12 12 11 10 9 8 8 8 7 7 6 6 5 3 2 2 2 3 3 4 4 3 6 8 8 6 9 9 10 9 13 13 11 10 9
16 15 11 12 13 13 12 12 12 11 11 9 8 7 7 7 8 8 6 5 3 1 2 3 3 4 6 6 7 6 6 8 7 3 9 7 13 12 13 12 11 9 8
15 12 12 11 10 10 10 13 12 11 10 9 8 7 7 9 10 5 1 6 4 3 3 5 5 5 8 8 9 10 9 10 6 3 3 5 13 13 13 12 10 10 9
11 9 10 11 10 8 11 9 10 10 9 8 7 8 8 8 6 15 13 13 9 7 8 8 9 8 8 9 12 12 10 6 4 3 4 9 8 12 13 12 11 10 10
14 14 12 10 11 8 9 11 9 9 8 7 8 8 7 5 2 11 13 16 10 7 10 11 12 10 7 6 4 11 5 6 3 8 5 12 11 12 13 13 11 12 11
15 11 13 8 8 6 4 7 6 6 6 7 7 5 3 1 4 3 3 5 4 8 6 7 7 4 6 5 3 3 5 8 3 6 9 16 14 13 13 13 14 13 14
7 11 14 12 8 8 8 5 5 6 4 3 5 6 3 3 1 1 1 2 4 2 3 2 3 4 5 4 5 4 5 6 4 4 10 18 16 13 13 14 16 15 15
8 6 11 10 5 3 4 4 1 3 3 5 5 5 4 4 2 2 2 3 3 4 3 2 2 4 5 5 5 5 4 5 7 1 5 14 16 16 15 16 17 17 17
8 7 9 10 7 3 3 4 3 1 0 1 3 4 1 2 4 1 1 4 1 4 2 5 4 4 5 6 7 6 5 3 5 6 2 8 14 16 17 16 17 18 18
9 8 7 7 10 8 6 4 2 5 4 2 2 2 5 6 5 2 1 3 4 3 3 4 6 5 6 6 8 7 5 6 6 7 5 6 10 17 19 18 17 17 18
6 8 8 7 10 9 8 5 4 5 6 2 3 3 7 6 5 3 2 4 4 3 4 5 4 5 5 5 5 4 5 4 7 8 6 5 5 9 15 20 20 20 19
8 8 6 6 9 9 7 6 7 6 5 2 1 2 2 3 1 2 4 3 4 4 5 6 5 4 4 6 7 7 7 5 8 8 10 10 10 8 8 17 21 20 21
11 8 8 4 5 11 6 3 2 2 4 5 3 3 6 3 5 3 4 5 5 4 5 5 5 5 5 6 7 8 8 8 5 6 8 7 10 11 10 9 12 12 21
14 10 8 7 4 4 3 3 3 3 4 4 4 5 5 3 4 3 3 4 5 6 6 6 4 4 5 4 4 7 8 8 11 9 8 6 10 10 10 8 8 9 10
12 14 9 10 7 4 3 4 3 3 4 5 6 6 5 4 5 4 3 4 6 5 6 5 4 3 4 4 4 5 4 5 7 11 10 10 11 7 9 11 8 11 10
11 12 9 9 9 6 6 3 4 4 3 3 2 2 4 5 5 5 4 4 4 4 5 4 4 6 5 4 6 4 3 5 4 4 4 6 11 9 9 8 12 11 9
13 11 12 9 9 8 5 2 5 1 3 1 1 5 3 4 4 4 4 4 4 4 7 4 4 4 3 5 4 3 7 6 3 6 4 5 3 6 10 5 7 11 12
16 13 11 10 7 7 6 3 2 4 4 3 4 4 3 5 5 5 3 5 4 4 6 6 5 4 5 4 4 3 5 5 7 6 8 8 7 2 6 3 14 13 10
15 13 12 11 7 6 6 5 3 0 3 3 4 3 4 3 3 5 6 4 3 4 5 5 5 6 4 5 4 5 4 3 5 5 6 9 10 8 5 7 13 6 12
Wind_Direction
104 102 100 95 106 109 108 107 108 104 103 101 97 92 92 93 95 90 90 90 86 80 82 74 86 80 74 70 74 80 82 88 100 103 106 117 116 117 116 137 157 98 99
112 108 104 102 105 103 104 110 111 104 107 102 99 98 92 93 93 95 91 91 88 84 83 78 81 78 79 81 79 84 97 115 110 113 123 125 125 119 94 72 94 103 96
110 126 111 110 108 107 106 105 103 107 98 99 99 96 93 95 94 94 93 92 88 87 88 86 86 82 84 84 73 68 54 103 118 159 143 157 127 120 103 97 98 95 100
129 112 112 115 112 101 104 105 105 107 105 103 101 93 92 96 93 93 89 83 86 87 88 85 88 97 99 85 71 31 357 354 27 193 231 163 140 121 114 104 103 107 99
89 99 116 117 115 111 106 106 106 107 106 108 99 98 98 93 93 92 93 92 92 90 90 89 82 78 62 23 41 45 7 343 2 340 229 155 202 135 129 122 120 116 115
111 108 120 126 126 125 122 118 113 113 114 113 110 109 108 113 110 109 110 111 105 96 88 90 87 69 36 13 22 40 360 323 20 340 270 170 88 146 138 132 109 113 117
118 118 124 127 132 133 135 131 125 120 118 120 117 121 119 116 120 122 118 115 109 100 91 83 68 31 5 347 355 1 323 296 147 259 144 113 130 158 139 121 123 122 123
120 115 125 125 125 129 131 131 127 126 122 124 127 128 131 136 139 142 140 131 121 105 64 33 15 338 315 308 303 304 299 297 302 272 127 118 158 174 134 128 129 130 135
117 118 137 130 131 137 137 138 141 138 139 140 140 146 152 164 179 175 163 158 156 125 314 315 319 278 286 286 290 281 269 285 293 319 132 157 158 165 138 134 137 141 142
129 125 131 136 144 148 146 146 149 150 153 160 163 171 186 207 207 182 292 207 194 217 252 270 270 267 269 276 274 270 272 270 242 143 240 156 158 156 142 145 153 153 152
109 124 125 150 154 148 134 149 150 158 165 170 180 194 215 238 156 98 274 279 228 228 239 242 252 257 267 270 264 265 276 271 222 121 70 144 162 161 151 157 169 165 169
144 163 157 167 140 181 153 156 164 169 182 193 198 175 218 266 113 153 198 231 244 235 249 243 249 249 252 258 218 246 244 253 202 114 119 229 181 172 156 175 181 177 179
154 179 148 130 174 152 120 185 170 180 189 196 205 197 181 339 54 273 129 227 225 229 240 198 237 245 247 228 340 289 243 256 222 127 165 178 193 174 165 184 188 191 188
168 144 133 151 204 145 174 177 190 188 148 178 194 186 203 216 88 299 283 275 255 107 84 30 334 354 333 339 290 253 313 307 321 133 163 176 175 177 184 192 200 195 198
169 162 129 112 90 69 248 17 6 129 197 174 176 195 218 192 198 246 343 320 322 350 334 222 266 307 300 281 280 311 250 291 308 149 160 185 178 182 186 198 203 203 202
183 174 141 127 142 151 283 330 322 171 217 220 144 159 112 197 159 290 308 283 335 294 357 341 6 316 300 294 290 248 233 237 277 291 160 181 187 188 194 198 205 209 206
178 176 143 134 156 163 203 238 260 304 237 224 212 188 212 183 218 217 201 282 297 306 306 260 247 247 254 282 287 277 216 207 241 243 263 180 191 197 196 200 204 212 208
169 122 142 176 181 183 179 189 223 245 277 242 192 243 228 207 207 156 218 254 266 291 301 301 289 281 281 260 275 300 303 263 248 222 216 236 195 196 207 204 206 206 210
135 156 181 192 174 176 190 192 210 228 241 321 287 247 144 84 91 189 255 259 250 256 255 268 282 287 300 301 300 266 250 239 243 248 212 217 228 216 188 210 214 212 212
166 189 173 184 228 175 142 227 250 301 303 280 339 342 324 17 307 299 282 271 275 279 269 271 269 286 270 272 279 291 300 294 271 267 251 235 212 225 233 197 207 211 211
165 141 148 139 116 110 127 198 199 230 236 258 240 247 248 256 251 265 255 245 250 244 251 257 268 275 295 290 294 276 272 269 275 260 261 239 239 222 216 229 185 196 202
150 152 156 147 141 176 190 182 231 232 227 211 231 206 215 243 169 202 263 336 322 344 336 301 272 310 305 299 284 291 292 279 250 252 242 248 252 236 218 217 210 196 211
150 149 151 148 164 180 186 186 201 250 246 284 346 77 70 29 347 344 348 324 312 308 288 343 0 312 293 305 287 252 285 245 354 300 288 260 253 244 240 221 215 218 215
154 159 150 160 167 170 134 312 99 356 282 68 268 85 22 9 23 322 286 283 359 345 305 317 337 320 303 287 300 263 262 266 287 305 300 302 309 269 262 266 252 218 214
156 161 148 161 139 123 129 49 32 29 14 14 39 31 348 265 251 239 255 32 347 315 322 325 316 301 296 266 280 301 302 289 258 255 282 286 290 236 247 123 303 300 239
152 157 156 137 136 143 146 156 152 153 49 354 22 331 281 0 286 86 54 34 318 292 309 325 306 298 295 294 286 290 283 289 299 294 291 286 285 282 228 205 228 276 312